TimeEST,TemperatureF,Dew PointF,Humidity,Sea Level PressureIn,VisibilityMPH,Wind Direction,Wind SpeedMPH,Gust SpeedMPH,PrecipitationIn,Events,Conditions,WindDirDegrees,DateUTC
12:51 AM,35.1,25.0,67,29.80,10.0,Calm,Calm,-,N/A,,Overcast,0,2013-01-20 05:51:00
1:51 AM,35.1,26.1,70,29.80,10.0,Calm,Calm,-,N/A,,Overcast,0,2013-01-20 06:51:00
2:51 AM,35.1,27.0,72,29.75,10.0,Calm,Calm,-,N/A,,Overcast,0,2013-01-20 07:51:00
3:51 AM,35.1,27.0,72,29.71,10.0,South,3.5,-,N/A,,Overcast,170,2013-01-20 08:51:00
4:51 AM,33.1,27.0,78,29.68,10.0,South,4.6,-,N/A,,Partly Cloudy,170,2013-01-20 09:51:00
5:51 AM,34.0,27.0,75,29.63,10.0,South,3.5,-,N/A,,Clear,180,2013-01-20 10:51:00
6:51 AM,35.1,27.0,72,29.59,10.0,South,5.8,-,N/A,,Clear,180,2013-01-20 11:51:00
7:51 AM,35.1,28.0,76,29.55,10.0,South,4.6,-,N/A,,Clear,180,2013-01-20 12:51:00
9:51 AM,45.0,27.0,49,29.51,10.0,Variable,4.6,-,N/A,,Clear,0,2013-01-20 14:51:00
10:51 AM,48.0,26.1,42,29.48,10.0,Variable,4.6,-,N/A,,Clear,0,2013-01-20 15:51:00
11:51 AM,50.0,25.0,38,29.46,10.0,WSW,9.2,24.2,N/A,,Mostly Cloudy,240,2013-01-20 16:51:00
12:51 PM,46.0,26.1,46,29.49,10.0,West,11.5,25.3,N/A,,Overcast,270,2013-01-20 17:51:00
1:51 PM,44.1,21.0,40,29.53,10.0,WSW,9.2,24.2,N/A,,Partly Cloudy,250,2013-01-20 18:51:00
2:51 PM,44.1,17.1,34,29.54,10.0,Variable,4.6,21.9,N/A,,Clear,0,2013-01-20 19:51:00
4:51 PM,39.0,10.0,30,29.65,10.0,West,12.7,31.1,N/A,,Clear,270,2013-01-20 21:51:00
6:51 PM,32.0,12.0,44,29.74,10.0,West,12.7,25.3,N/A,,Clear,280,2013-01-20 23:51:00
7:51 PM,30.9,8.1,38,29.76,10.0,WSW,9.2,-,N/A,,Clear,250,2013-01-21 00:51:00
8:51 PM,30.0,8.1,40,29.78,10.0,West,8.1,25.3,N/A,,Clear,260,2013-01-21 01:51:00
9:51 PM,28.9,6.1,38,29.82,10.0,West,15.0,26.5,N/A,,Clear,270,2013-01-21 02:51:00
10:51 PM,27.0,1.9,34,29.85,10.0,WNW,21.9,29.9,N/A,,Clear,290,2013-01-21 03:51:00
11:51 PM,24.1,1.0,37,29.87,10.0,WNW,15.0,24.2,N/A,,Clear,300,2013-01-21 04:51:00